Location: *
(37.4917°N, 71.5558°E)
Time: 21:21:47
(UTC+00:00)

SL-16 R/B - Pass Details

Date: 09 April 2020
Orbit: 841 x 849 km, 71.0° (Epoch: 30 May)

Event Time Altitude Azimuth Distance (km) Brightness Sun altitude
Rises 23:24:15 0° 324° (NW) 3,405 5.2 -16.3°
Reaches altitude 10° 23:27:04 10° 312° (NW) 2,467 4.4 -15.8°
Maximum altitude 23:31:38 26° 258° (WSW) 1,612 3.1 -14.9°
Drops below altitude 10° 23:36:12 10° 204° (SSW) 2,458 4.2 -14.1°
Sets 23:39:00 0° 192° (SSW) 3,390 5.0 -13.6°
